Tracking 19909 objects as of 22-Oct-2019
HD Live streaming from Space Station
objects crossing your sky now

IRIDIUM 33 DEB

Track IRIDIUM 33 DEB now!
10-day predictions


NORAD ID: 34525
Int'l Code: 1997-051HS
Perigee: 773.5 km
Apogee: 777.1 km
Inclination: 86.4 °
Period: 100.2 minutes
Semi major axis: 7146 km
RCS: 0.0234 m2 (small)
Launch date: September 14, 1997
Source: United States (US)
Launch site: TYURATAM MISSILE AND SPACE COMPLEX (TTMTR)

Note: This is SATELLITE DEBRIS
aabbcc
Your satellite tracking list
Your tracking list is empty




NASA's NSSDC Master Catalog

Two Line Element Set (TLE):
1 34525U 97051HS  19294.99525022  .00000229  00000-0  70437-4 0  9998
2 34525  86.3716 277.2464 0002553 248.1249 169.5775 14.37073962558795
Source of the keplerian elements: AFSPC